• In Österreich
  • Länderverzeichnis
  • Für 7 Tage
  • Wassertemperatur
  • Satellitenkarten
  • Wetterkarte
  • News
  • Widgets
  • user-avatar
    Anmelden

    Stündliche Wetter Klagenfurt

    Heute, 12 Dezember, Dienstag

    Zeit Temperatur Niederschläge Wind Luftdruck Luftfeuchtigkeit
    00:00 +6°C° 1,6 mm 5 m/S 676 mmHg 89%
    01:00 +6°C° 0 mm 4 m/S 676 mmHg 89%
    02:00 +6°C° 2,4 mm 4 m/S 676 mmHg 90%
    03:00 +6°C° 2,4 mm 4 m/S 677 mmHg 90%
    04:00 +6°C° 2,4 mm 5 m/S 677 mmHg 91%
    05:00 +6°C° 2,8 mm 5 m/S 678 mmHg 92%
    06:00 +6°C° 2,8 mm 4 m/S 679 mmHg 92%
    07:00 +6°C° 2,8 mm 4 m/S 679 mmHg 93%
    08:00 +6°C° 1,5 mm 4 m/S 680 mmHg 93%
    09:00 +7°C° 1,5 mm 3 m/S 681 mmHg 94%
    10:00 +7°C° 1,5 mm 3 m/S 682 mmHg 94%
    11:00 +7°C° 0,3 mm 3 m/S 682 mmHg 92%
    12:00 +7°C° 0,3 mm 3 m/S 683 mmHg 89%
    13:00 +7°C° 0,3 mm 3 m/S 684 mmHg 87%
    14:00 +6°C° 0,1 mm 2 m/S 684 mmHg 89%
    15:00 +6°C° 0,1 mm 2 m/S 684 mmHg 91%
    16:00 +6°C° 0,1 mm 1 m/S 685 mmHg 92%
    17:00 +5°C° 0 mm 1 m/S 685 mmHg 93%
    18:00 +5°C° 0 mm 1 m/S 685 mmHg 93%
    19:00 +5°C° 0 mm 1 m/S 686 mmHg 94%
    20:00 +4°C° 0,1 mm 1 m/S 686 mmHg 94%
    21:00 +4°C° 0,1 mm 1 m/S 687 mmHg 93%
    22:00 +4°C° 0,1 mm 1 m/S 687 mmHg 93%
    23:00 +4°C° 0,5 mm 1 m/S 688 mmHg 93%

    Morgen, 13 Dezember, Mittwoch

    Zeit Temperatur Niederschläge Wind Luftdruck Luftfeuchtigkeit
    00:00 +3°C° 0,5 mm 1 m/S 688 mmHg 93%
    01:00 +3°C° 0,5 mm 1 m/S 688 mmHg 93%
    02:00 +3°C° 0,9 mm 1 m/S 689 mmHg 92%
    03:00 +2°C° 0,9 mm 1 m/S 689 mmHg 92%
    04:00 +1°C° 0,9 mm 2 m/S 689 mmHg 91%
    05:00 -1°C° 0,7 mm 2 m/S 689 mmHg 91%
    06:00 +1°C° 0,7 mm 1 m/S 690 mmHg 91%
    07:00 +1°C° 0,7 mm 1 m/S 690 mmHg 91%
    08:00 +1°C° 0,4 mm 1 m/S 690 mmHg 90%
    09:00 +1°C° 0,4 mm 1 m/S 690 mmHg 89%
    10:00 +1°C° 0,4 mm 1 m/S 691 mmHg 88%
    11:00 +1°C° 0,2 mm 1 m/S 690 mmHg 86%
    12:00 +2°C° 0,2 mm 1 m/S 690 mmHg 85%
    13:00 +2°C° 0,2 mm 1 m/S 689 mmHg 84%
    14:00 +2°C° 0 mm 1 m/S 689 mmHg 86%
    15:00 +1°C° 0 mm 1 m/S 689 mmHg 89%
    16:00 +1°C° 0 mm 1 m/S 688 mmHg 91%
    17:00 0°C° 0 mm 1 m/S 688 mmHg 92%
    18:00 0°C° 0 mm 1 m/S 688 mmHg 93%
    19:00 -1°C° 0 mm 1 m/S 688 mmHg 94%
    20:00 -1°C° 0 mm 1 m/S 687 mmHg 94%
    21:00 0°C° 0 mm 1 m/S 687 mmHg 94%
    22:00 0°C° 0 mm 1 m/S 687 mmHg 94%
    23:00 0°C° 0 mm 1 m/S 686 mmHg 94%

    übermorgen, 14 Dezember, Donnerstag

    Zeit Temperatur Niederschläge Wind Luftdruck Luftfeuchtigkeit
    00:00 0°C° 0 mm 1 m/S 686 mmHg 94%
    01:00 -2°C° 0 mm 2 m/S 685 mmHg 94%
    02:00 -2°C° 0 mm 2 m/S 685 mmHg 93%
    03:00 -2°C° 0 mm 2 m/S 684 mmHg 93%
    04:00 -2°C° 0 mm 2 m/S 684 mmHg 92%
    05:00 -2°C° 0 mm 2 m/S 684 mmHg 92%
    06:00 -2°C° 0 mm 2 m/S 683 mmHg 91%
    07:00 -2°C° 0 mm 2 m/S 683 mmHg 91%
    08:00 -1°C° 0 mm 2 m/S 683 mmHg 90%
    09:00 +1°C° 0 mm 2 m/S 683 mmHg 88%
    10:00 +1°C° 0 mm 2 m/S 683 mmHg 87%
    11:00 +2°C° 0,1 mm 2 m/S 683 mmHg 87%
    12:00 +3°C° 0,1 mm 2 m/S 682 mmHg 87%
    13:00 +3°C° 0,1 mm 2 m/S 682 mmHg 87%
    14:00 +4°C° 0,2 mm 1 m/S 681 mmHg 89%
    15:00 +3°C° 0,2 mm 1 m/S 681 mmHg 91%
    16:00 +3°C° 0,2 mm 1 m/S 681 mmHg 92%
    17:00 +3°C° 0 mm 1 m/S 681 mmHg 93%
    18:00 +3°C° 0 mm 1 m/S 680 mmHg 93%
    19:00 +3°C° 0 mm 1 m/S 680 mmHg 94%
    20:00 +2°C° 0 mm 2 m/S 680 mmHg 94%
    21:00 +2°C° 0 mm 2 m/S 679 mmHg 93%
    22:00 +2°C° 0 mm 2 m/S 679 mmHg 93%
    23:00 +3°C° 0,1 mm 2 m/S 679 mmHg 93%

    15 Dezember, Freitag

    Zeit Temperatur Niederschläge Wind Luftdruck Luftfeuchtigkeit
    00:00 +3°C° 0,1 mm 2 m/S 678 mmHg 93%
    01:00 +2°C° 0,1 mm 3 m/S 678 mmHg 93%
    02:00 +3°C° 0,1 mm 2 m/S 678 mmHg 93%
    03:00 +3°C° 0,1 mm 2 m/S 677 mmHg 93%
    04:00 +3°C° 0,1 mm 2 m/S 677 mmHg 93%
    05:00 +3°C° 0,3 mm 2 m/S 677 mmHg 93%
    06:00 +4°C° 0,3 mm 1 m/S 677 mmHg 94%
    07:00 +4°C° 0,3 mm 1 m/S 678 mmHg 94%
    08:00 +4°C° 0,4 mm 1 m/S 678 mmHg 94%
    09:00 +4°C° 0,4 mm 1 m/S 678 mmHg 94%
    10:00 +4°C° 0,4 mm 1 m/S 678 mmHg 94%
    11:00 +4°C° 0,7 mm 1 m/S 678 mmHg 92%
    12:00 +4°C° 0,7 mm 1 m/S 678 mmHg 91%
    13:00 +4°C° 0,7 mm 1 m/S 678 mmHg 90%
    14:00 +4°C° 1 mm 1 m/S 677 mmHg 91%
    15:00 +3°C° 1 mm 1 m/S 677 mmHg 92%
    16:00 +2°C° 1 mm 1 m/S 677 mmHg 92%
    17:00 +2°C° 1,1 mm 1 m/S 678 mmHg 93%
    18:00 +2°C° 1,1 mm 1 m/S 678 mmHg 93%
    19:00 +1°C° 1,1 mm 1 m/S 678 mmHg 94%
    20:00 +1°C° 0,5 mm 1 m/S 678 mmHg 93%
    21:00 +1°C° 0,5 mm 1 m/S 679 mmHg 93%
    22:00 0°C° 0,5 mm 1 m/S 679 mmHg 92%
    23:00 0°C° 0,1 mm 1 m/S 679 mmHg 92%

    16 Dezember, Samstag

    Zeit Temperatur Niederschläge Wind Luftdruck Luftfeuchtigkeit
    00:00 0°C° 0,1 mm 1 m/S 679 mmHg 92%
    01:00 -1°C° 0,1 mm 1 m/S 679 mmHg 92%
    02:00 -1°C° 0 mm 1 m/S 680 mmHg 91%
    03:00 -1°C° 0 mm 1 m/S 680 mmHg 90%
    04:00 -1°C° 0 mm 1 m/S 680 mmHg 90%
    05:00 -2°C° 0 mm 1 m/S 681 mmHg 89%
    06:00 -2°C° 0 mm 1 m/S 681 mmHg 88%
    07:00 -2°C° 0 mm 1 m/S 681 mmHg 86%
    08:00 -1°C° 0 mm 1 m/S 682 mmHg 85%
    09:00 -1°C° 0 mm 1 m/S 683 mmHg 83%
    10:00 0°C° 0 mm 1 m/S 684 mmHg 81%
    11:00 +1°C° 0 mm 1 m/S 684 mmHg 77%
    12:00 +2°C° 0 mm 1 m/S 684 mmHg 73%
    13:00 +3°C° 0 mm 1 m/S 685 mmHg 69%
    14:00 +2°C° 0 mm 1 m/S 685 mmHg 72%
    15:00 0°C° 0 mm 1 m/S 685 mmHg 74%
    16:00 -1°C° 0 mm 1 m/S 685 mmHg 77%
    17:00 -2°C° 0 mm 1 m/S 686 mmHg 78%
    18:00 -3°C° 0 mm 1 m/S 686 mmHg 79%
    19:00 -4°C° 0 mm 1 m/S 687 mmHg 79%
    20:00 -4°C° 0 mm 1 m/S 687 mmHg 79%
    21:00 -4°C° 0 mm 1 m/S 687 mmHg 79%
    22:00 -4°C° 0 mm 1 m/S 687 mmHg 79%
    23:00 -4°C° 0 mm 1 m/S 687 mmHg 78%

    17 Dezember, Sonntag

    Zeit Temperatur Niederschläge Wind Luftdruck Luftfeuchtigkeit
    00:00 -4°C° 0 mm 1 m/S 688 mmHg 78%
    01:00 -4°C° 0 mm 1 m/S 688 mmHg 77%
    02:00 -4°C° 0 mm 1 m/S 688 mmHg 77%
    03:00 -4°C° 0 mm 1 m/S 688 mmHg 76%
    04:00 -4°C° 0 mm 1 m/S 688 mmHg 76%
    05:00 -4°C° 0 mm 1 m/S 688 mmHg 76%
    06:00 -4°C° 0 mm 1 m/S 688 mmHg 76%
    07:00 -4°C° 0 mm 1 m/S 688 mmHg 76%
    08:00 -3°C° 0 mm 1 m/S 689 mmHg 74%
    09:00 -2°C° 0 mm 1 m/S 689 mmHg 73%
    10:00 -1°C° 0 mm 1 m/S 690 mmHg 71%
    11:00 0°C° 0 mm 1 m/S 690 mmHg 69%
    12:00 +1°C° 0 mm 1 m/S 690 mmHg 66%
    13:00 +2°C° 0 mm 1 m/S 690 mmHg 64%
    14:00 +1°C° 0 mm 1 m/S 690 mmHg 68%
    15:00 0°C° 0 mm 1 m/S 690 mmHg 72%
    16:00 -1°C° 0 mm 1 m/S 691 mmHg 77%
    17:00 -2°C° 0 mm 1 m/S 691 mmHg 78%
    18:00 -3°C° 0 mm 1 m/S 692 mmHg 80%
    19:00 -3°C° 0 mm 1 m/S 692 mmHg 81%
    20:00 -4°C° 0 mm 1 m/S 693 mmHg 81%
    21:00 -4°C° 0 mm 1 m/S 693 mmHg 81%
    22:00 -4°C° 0 mm 1 m/S 693 mmHg 81%
    23:00 -4°C° 0 mm 1 m/S 694 mmHg 80%
    Mehr zeigen